Location: Newark
(0.5300°S, 127.4800°E)
Time: 02:59:43
(UTC+00:00)

A-11 Canister half - Pass Details

Date: 22 September 2019
Orbit: 1514 x 1686 km, 47.2° (Epoch: 18 October)

Event Time Altitude Azimuth Distance (km) Brightness Sun altitude
Rises 21:44:11 0° 220° (SW) 4,880 11.2 5.4°
Reaches altitude 10° 21:47:22 10° 220° (SW) 3,871 10.8 6.1°
Maximum altitude 21:57:15 88° 308° (NW) 1,594 9.3 8.6°
Drops below altitude 10° 22:06:45 10° 39° (NE) 3,724 11.7 11.0°
Sets 22:09:45 0° 39° (NE) 4,688 12.2 11.7°
